Location: Hartford
(41.7640°N, 72.6860°W)
Time: 09:30:18
(UTC-05:00)

ISS - Visible Passes

Search period start: 23 November 2014 00:00
Search period end: 03 December 2014 00:00
Orbit: 408 x 417 km, 51.6° (Epoch: 23 November)

Date Brightness Start Highest point End Pass type
(mag) Time Alt. Az. Time Alt. Az. Time Alt. Az.
23 Nov -1.5 05:19:38 20° NNW 05:20:49 24° NNE 05:23:35 10° ENE visible
24 Nov -0.7 04:32:00 17° NE 04:32:00 17° NE 04:33:21 10° ENE visible
24 Nov -3.2 06:04:49 11° NW 06:07:59 73° NE 06:11:17 10° ESE visible
25 Nov -2.5 05:17:10 32° NNW 05:18:09 43° NNE 05:21:20 10° ESE visible
26 Nov -0.9 04:29:31 22° ENE 04:29:31 22° ENE 04:31:10 10° E visible
26 Nov -2.7 06:02:20 14° WNW 06:04:56 42° SW 06:08:04 10° SSE visible
27 Nov -3.4 05:14:42 63° WNW 05:15:07 78° SW 05:18:24 10° SE visible
28 Nov -0.8 04:27:05 22° ESE 04:27:05 22° ESE 04:28:26 10° ESE visible
28 Nov -1.3 05:59:54 12° W 06:01:30 16° SW 06:03:38 10° S visible
29 Nov -1.9 05:12:18 26° SSW 05:12:18 26° SSW 05:14:34 10° SSE visible
30 Nov -0.2 04:24:44 12° SE 04:24:44 12° SE 04:24:57 10° SE visible
